Change the Weather History Date:

Monday, January 14, 2013

  Actual Average Record
Temperature  
Mean Temperature 75 °F 71 °F  
Max Temperature 84 °F 79 °F 87 °F (1980)
Min Temperature 65 °F 64 °F 57 °F (1978)
Degree Days  
Heating Degree Days 0 0  
Month to date heating degree days 0 0  
Since 1 July heating degree days 0 0  
Cooling Degree Days 10 6  
Month to date cooling degree days 95 95  
Year to date cooling degree days 95 95  
Growing Degree Days 24 (Base 50)    
Moisture  
Dew Point 65 °F    
Average Humidity 73    
Maximum Humidity 90    
Minimum Humidity 55    
Precipitation  
Precipitation 0.00 in 0.27 in 4.66 in (1979)
Month to date precipitation 7.57 3.86  
Year to date precipitation 7.57 3.86  
Snow  
Snow 0.00 in - - ()
Month to date snowfall 0.0  
Since 1 July snowfall 0.0  
Snow Depth 0.00 in    
Sea Level Pressure  
Sea Level Pressure 29.94 in    
Wind  
Wind Speed 7 mph (SSE)    
Max Wind Speed 21 mph    
Max Gust Speed 26 mph    
Visibility 10 miles    
Events      
T = Trace of Precipitation, MM = Missing Value Source: NWS Daily Summary

Daily Weather History Graph

Daily Weather History Graph

Search for Another Location

Airport or City:

Trip Planner

Search our weather history database for the weather conditions in past years. The results will help you decide how hot, cold, wet, or windy it might be!

Date:

Astronomy

Jan. 14, 2013 Rise Set
Actual Time 6:57 AM HST 6:01 PM HST
Civil Twilight 6:33 AM HST 6:25 PM HST
Nautical Twilight 6:06 AM HST 6:52 PM HST
Astronomical Twilight 5:40 AM HST 7:18 PM HST
Moon 9:09 AM HST (1/14) 9:21 PM HST (1/14)
Length of Visible Light 11h 51m
Length of Day
11h 04m
Waxing Crescent, 13% of the Moon is Illuminated
Jan 14
Waxing Crescent
Jan 18
First Quarter
Jan 26
Full
Feb 3
Last Quarter
Feb 9
New

Hourly Weather History & Observations

Time (HST) Temp. Heat Index Dew Point Humidity Pressure Visibility Wind Dir Wind Speed Gust Speed Precip Events Conditions
12:53 AM 66.9 °F - 62.1 °F 84% 29.97 in 10.0 mi SW 4.6 mph - N/A   Clear
1:53 AM 66.0 °F - 61.0 °F 84% 29.97 in 10.0 mi SW 3.5 mph - N/A   Clear
2:53 AM 66.0 °F - 60.1 °F 81% 29.97 in 10.0 mi SSW 5.8 mph - N/A   Partly Cloudy
3:53 AM 70.0 °F - 64.0 °F 81% 29.96 in 10.0 mi South 4.6 mph - N/A   Overcast
4:06 AM 68.0 °F - 63.0 °F 84% 29.97 in 10.0 mi SW 5.8 mph - N/A   Mostly Cloudy
4:53 AM 66.9 °F - 59.0 °F 76% 29.97 in 10.0 mi WSW 4.6 mph - N/A   Overcast
5:25 AM 66.9 °F - 60.1 °F 79% 29.97 in 10.0 mi SW 3.5 mph - N/A   Overcast
5:53 AM 68.0 °F - 62.1 °F 81% 29.97 in 10.0 mi Calm Calm - N/A   Overcast
6:53 AM 68.0 °F - 61.0 °F 78% 29.97 in 10.0 mi WSW 3.5 mph - N/A   Mostly Cloudy
7:53 AM 73.0 °F - 64.9 °F 76% 29.99 in 10.0 mi SSE 5.8 mph - N/A   Scattered Clouds
8:53 AM 75.9 °F - 66.0 °F 71% 29.99 in 10.0 mi SSE 6.9 mph - N/A   Scattered Clouds
9:53 AM 79.0 °F - 66.9 °F 66% 29.97 in 10.0 mi SSE 11.5 mph - N/A   Clear
10:53 AM 82.0 °F 84.9 °F 68.0 °F 62% 29.96 in 10.0 mi SE 5.8 mph - N/A   Partly Cloudy
11:53 AM 82.9 °F 85.0 °F 66.0 °F 56% 29.91 in 10.0 mi ESE 12.7 mph 23.0 mph N/A   Partly Cloudy
12:53 PM 82.9 °F 85.8 °F 68.0 °F 60% 29.88 in 10.0 mi ESE 15.0 mph 24.2 mph N/A   Partly Cloudy
1:53 PM 84.0 °F 86.3 °F 66.0 °F 55% 29.86 in 10.0 mi SE 15.0 mph 25.3 mph N/A   Scattered Clouds
2:53 PM 82.0 °F 84.9 °F 68.0 °F 62% 29.85 in 10.0 mi ESE 16.1 mph - N/A   Scattered Clouds
3:53 PM 81.0 °F 83.3 °F 66.9 °F 62% 29.84 in 10.0 mi SE 19.6 mph - N/A   Partly Cloudy
4:53 PM 79.0 °F - 66.9 °F 66% 29.88 in 10.0 mi ESE 9.2 mph - N/A   Partly Cloudy
5:53 PM 75.0 °F - 68.0 °F 79% 29.92 in 10.0 mi East 6.9 mph - N/A   Scattered Clouds
6:17 PM 75.0 °F - 68.0 °F 79% 29.92 in 10.0 mi East 8.1 mph - N/A   Overcast
6:38 PM 73.9 °F - 69.1 °F 85% 29.93 in 10.0 mi East 9.2 mph - N/A   Scattered Clouds
6:53 PM 73.9 °F - 69.1 °F 85% 29.93 in 10.0 mi East 6.9 mph - N/A   Mostly Cloudy
7:05 PM 73.9 °F - 69.1 °F 85% 29.93 in 10.0 mi East 3.5 mph - N/A   Overcast
7:53 PM 73.9 °F - 68.0 °F 82% 29.93 in 10.0 mi NW 6.9 mph - N/A   Mostly Cloudy
8:53 PM 73.0 °F - 68.0 °F 84% 29.93 in 10.0 mi Calm Calm - N/A   Mostly Cloudy
9:53 PM 71.1 °F - 66.9 °F 87% 29.93 in 10.0 mi North 3.5 mph - N/A   Clear
11:53 PM 68.0 °F - 64.9 °F 90% 29.90 in 10.0 mi Calm Calm - N/A   Clear